Location: Finnegan
(51.1333°N, 112.0833°W)
Time: 20:47:57
(UTC+00:00)

Envisat - Pass Details

Date: 07 December 2021
Orbit: 764 x 766 km, 98.2° (Epoch: 26 January)

Event Time Altitude Azimuth Distance (km) Brightness Sun altitude
Rises 13:38:37 0° 8° (N) 3,248 6.1 -14.7°
Reaches altitude 10° 13:41:06 10° 360° (N) 2,317 5.3 -14.3°
Maximum altitude 13:45:40 34° 296° (WNW) 1,239 3.6 -13.6°
Drops below altitude 10° 13:50:13 10° 233° (SW) 2,302 5.2 -12.9°
Sets 13:52:40 0° 224° (SW) 3,223 6.0 -12.6°
